Total_Precipitation_Accumulation
0.18 0.09 0.10 0.10 0.13 0.13 0.14 0.18 0.19 0.20 0.19 0.18 0.18 0.17 0.19 0.18 0.17 0.15 0.14 0.17 0.21 0.27 0.30 0.35 0.35 0.34 0.36 0.36 0.32 0.28 0.26 0.29 0.34 0.36 0.41 0.48 0.55 0.57 0.59 0.62 0.71 0.64 0.58
0.15 0.10 0.10 0.08 0.10 0.12 0.13 0.17 0.19 0.19 0.20 0.22 0.22 0.23 0.23 0.19 0.16 0.15 0.14 0.19 0.28 0.32 0.31 0.32 0.33 0.31 0.33 0.30 0.26 0.25 0.24 0.29 0.40 0.49 0.56 0.57 0.66 0.68 0.66 0.64 0.78 0.91 0.72
0.15 0.10 0.08 0.09 0.09 0.11 0.12 0.16 0.18 0.17 0.18 0.20 0.22 0.23 0.20 0.17 0.16 0.18 0.17 0.22 0.29 0.32 0.31 0.27 0.26 0.28 0.28 0.27 0.25 0.25 0.27 0.36 0.49 0.69 1.04 0.95 0.79 0.75 0.75 0.72 0.65 0.62 0.56
0.17 0.11 0.08 0.10 0.11 0.12 0.12 0.15 0.21 0.19 0.18 0.18 0.20 0.20 0.20 0.20 0.21 0.22 0.23 0.27 0.31 0.32 0.32 0.32 0.30 0.27 0.27 0.28 0.26 0.24 0.29 0.40 0.63 0.93 1.54 1.37 1.09 1.08 1.02 0.86 0.67 0.56 0.49
0.17 0.14 0.13 0.13 0.15 0.17 0.15 0.14 0.21 0.22 0.22 0.23 0.23 0.22 0.24 0.26 0.27 0.27 0.30 0.32 0.34 0.37 0.40 0.40 0.40 0.36 0.33 0.32 0.31 0.32 0.40 0.54 0.81 1.21 1.81 1.75 1.62 1.46 1.12 0.89 0.76 0.68 0.60
0.22 0.15 0.16 0.17 0.19 0.20 0.19 0.20 0.21 0.22 0.26 0.29 0.29 0.28 0.28 0.30 0.30 0.31 0.35 0.39 0.41 0.43 0.48 0.51 0.48 0.41 0.36 0.36 0.39 0.44 0.52 0.71 0.91 1.32 1.94 1.91 1.76 1.56 1.13 0.98 0.86 0.75 0.68
0.38 0.30 0.23 0.22 0.21 0.21 0.23 0.28 0.31 0.28 0.29 0.33 0.33 0.31 0.32 0.33 0.33 0.35 0.38 0.41 0.46 0.47 0.48 0.45 0.43 0.38 0.37 0.39 0.42 0.49 0.64 0.91 1.12 1.67 2.00 1.92 2.01 1.63 1.28 1.20 1.08 0.92 0.73
0.51 0.44 0.39 0.30 0.22 0.25 0.31 0.33 0.39 0.42 0.41 0.40 0.39 0.39 0.40 0.39 0.38 0.42 0.44 0.47 0.53 0.60 0.59 0.49 0.42 0.41 0.40 0.41 0.42 0.52 0.68 0.84 0.97 1.58 1.97 1.85 1.73 1.53 1.43 1.38 1.22 1.01 0.83
0.64 0.63 0.57 0.43 0.36 0.39 0.43 0.43 0.47 0.51 0.50 0.49 0.51 0.53 0.52 0.50 0.49 0.48 0.50 0.54 0.59 0.63 0.62 0.58 0.55 0.52 0.50 0.48 0.48 0.54 0.65 0.89 1.09 1.37 1.49 1.81 1.73 1.76 1.63 1.40 1.18 1.00 0.88
0.89 0.87 0.83 0.82 0.75 0.65 0.63 0.68 0.66 0.68 0.63 0.54 0.52 0.57 0.57 0.53 0.51 0.54 0.51 0.58 0.65 0.67 0.64 0.68 0.76 0.74 0.68 0.58 0.55 0.58 0.70 0.81 0.79 1.16 1.73 1.73 1.68 1.89 1.90 1.59 1.31 1.11 0.99
1.18 1.15 1.02 1.06 1.05 0.92 0.86 0.81 0.87 0.86 0.80 0.70 0.63 0.64 0.62 0.70 0.78 0.77 0.70 0.80 0.85 0.91 0.96 0.98 0.96 0.91 0.91 0.80 0.75 0.77 0.78 0.75 0.95 1.42 1.89 1.63 1.67 1.95 2.06 1.87 1.55 1.34 1.19
1.39 1.34 1.24 1.13 1.07 1.02 0.93 1.00 1.09 1.07 1.05 0.89 0.94 0.93 0.95 1.26 1.42 1.22 1.28 1.30 1.27 1.27 1.25 1.21 1.16 1.14 1.05 0.84 0.88 0.91 0.75 0.82 1.20 1.68 1.66 1.56 1.72 2.00 2.26 2.08 1.76 1.52 1.43
1.75 1.54 1.58 1.49 1.36 1.49 1.54 1.41 1.41 1.45 1.50 1.33 1.42 1.46 1.52 1.69 1.70 1.66 1.76 1.62 1.57 1.51 1.48 1.58 1.37 1.14 1.09 1.06 1.01 0.99 0.92 0.94 1.15 1.40 1.52 1.59 1.82 2.15 2.39 2.24 2.00 1.83 1.78
2.26 2.04 1.95 1.96 1.88 1.93 2.16 1.97 1.76 1.66 1.69 1.70 1.79 1.75 2.04 2.13 2.09 2.07 2.14 2.03 2.00 1.98 2.02 1.91 1.78 1.58 1.44 1.31 1.18 1.19 1.18 1.13 1.20 1.42 1.59 1.63 1.77 2.15 2.47 2.44 2.26 2.05 2.00
2.51 2.44 2.19 2.20 2.26 2.41 2.59 2.40 2.18 2.23 2.02 1.95 2.14 2.14 2.31 2.39 2.36 2.43 2.32 2.27 2.15 2.13 2.11 2.01 1.92 1.93 1.82 1.64 1.40 1.38 1.43 1.35 1.38 1.57 1.63 1.67 1.73 2.03 2.45 2.68 2.60 2.41 2.39
2.44 2.56 2.63 2.54 2.57 2.46 2.55 2.53 2.29 2.19 2.29 2.16 2.16 2.24 2.27 2.41 2.62 2.69 2.64 2.55 2.47 2.42 2.49 2.32 2.10 2.26 2.11 2.01 1.81 1.73 1.69 1.72 1.67 1.75 1.96 1.97 1.78 1.81 2.14 2.55 2.75 2.76 2.79
2.36 2.41 2.55 2.59 2.69 2.64 2.60 2.62 2.49 2.34 2.34 2.42 2.50 2.59 2.46 2.45 2.71 2.79 2.95 2.86 2.78 2.73 2.74 2.68 2.56 2.62 2.39 2.25 2.09 1.98 1.94 2.03 2.02 1.95 2.10 2.24 2.02 1.97 1.99 2.15 2.41 2.65 2.84
1.99 2.17 2.37 2.52 2.63 2.86 2.95 3.04 2.89 2.95 2.93 2.89 2.77 2.75 2.63 2.62 2.84 3.12 3.20 3.14 3.13 3.02 3.07 3.16 3.11 2.91 2.76 2.58 2.38 2.11 2.03 2.16 2.18 2.16 2.19 2.32 2.46 2.29 2.18 2.08 2.16 2.35 2.64
1.79 2.15 2.43 2.66 2.91 3.09 3.32 3.54 3.48 3.58 3.45 3.33 3.26 3.16 3.20 3.30 3.32 3.48 3.56 3.57 3.54 3.55 3.53 3.36 3.52 3.34 3.26 3.06 2.64 2.41 2.16 2.09 2.19 2.12 2.18 2.18 2.33 2.38 2.39 2.27 2.18 2.24 2.47
1.91 2.23 2.54 2.81 3.22 3.63 3.72 3.87 3.81 3.97 3.98 3.97 4.08 3.96 3.79 3.88 3.97 4.07 4.00 4.01 4.01 4.04 3.89 3.85 3.89 3.66 3.44 3.38 2.93 2.66 2.44 2.19 2.19 2.17 2.16 2.25 2.23 2.10 2.18 2.27 2.39 2.20 2.35
2.45 2.57 2.75 3.01 3.32 3.54 3.86 4.16 4.32 4.41 4.59 4.66 4.66 4.72 4.73 4.74 4.88 4.92 4.73 4.66 4.53 4.40 4.21 4.13 3.98 3.76 3.50 3.45 3.31 2.86 2.31 2.00 1.96 1.88 1.92 2.11 2.15 2.06 2.09 2.15 2.24 2.19 2.07
2.81 2.83 3.05 3.37 3.67 3.83 4.22 4.69 5.08 5.20 5.28 5.31 5.28 5.43 5.54 5.57 5.70 5.75 5.69 5.49 5.28 5.00 4.53 4.17 4.01 3.80 3.46 3.53 3.49 3.36 2.70 2.24 1.84 1.51 1.60 1.68 1.76 1.93 1.90 1.89 2.00 2.14 2.07
2.78 2.88 3.05 3.48 3.94 4.38 4.85 5.36 5.79 6.01 6.05 5.94 5.65 5.72 5.85 5.77 5.82 5.97 5.93 5.71 5.37 4.83 4.30 4.12 4.04 3.91 3.70 3.62 3.48 3.57 3.07 2.58 2.18 1.71 1.49 1.40 1.49 1.57 1.58 1.63 1.70 1.84 1.83
2.66 2.89 3.08 3.45 4.10 4.60 4.97 5.59 6.19 6.45 6.65 6.77 6.55 6.22 5.97 5.73 5.60 5.49 5.30 4.90 4.51 4.17 3.88 3.77 3.81 3.67 3.65 3.51 3.42 3.14 2.92 2.64 2.38 1.98 1.59 1.40 1.40 1.42 1.43 1.39 1.47 1.69 1.78
2.50 2.62 2.85 3.38 3.98 4.65 5.28 5.82 6.35 6.78 6.97 6.95 6.56 6.13 5.61 5.22 4.80 4.43 4.06 3.79 3.70 3.52 3.32 3.22 3.20 3.12 2.99 2.92 2.92 2.89 2.84 2.58 2.26 2.05 1.78 1.57 1.55 1.44 1.43 1.47 1.54 1.63 1.73
2.13 2.33 2.59 3.02 3.77 4.49 5.09 5.69 6.15 6.54 6.57 6.25 5.73 5.23 4.91 4.53 4.04 3.56 3.30 3.07 2.94 2.76 2.56 2.44 2.43 2.46 2.54 2.59 2.64 2.64 2.59 2.56 2.40 2.31 2.13 1.88 1.75 1.69 1.61 1.55 1.61 1.70 1.85